Flag for Canada Weather past 2 weeks in Red Deer, Alberta, Canada

Now
7 °F

Overcast.


Feels Like: -4 °F
Forecast: -1 / 14 °F
Wind: 6 mph from Northwest

Location: Red Deer

Current Time: Feb 27, 2015 at 12:34:22 AM

Latest Report: Feb 27, 2015 at 12:00 AM


Visibility: 15 mi

Pressure: 30.25 "Hg

Humidity: 92%

Dew point: 5 °F

Location of Red DeerLocation

Historic Weather in Red Deer — Graph

°F

Red Deer temperature yesterday

Maximum temperature yesterday: 18 °F (at 4:00 PM)
Minimum temperature yesterday: 0 °F (at 3:00 AM)
Average temperature yesterday: 7 °F

Past Weeks' High & Low Weather Summary

 TemperatureHumidityPressure
High46 °F (Feb 23, 4:00 PM)100% (Feb 14, 12:00 AM)30.74 "Hg (Feb 14, 12:00 AM)
Low-2 °F (Feb 21, 11:00 PM)42% (Feb 19, 2:00 PM)29.90 "Hg (Feb 19, 3:00 PM)
Average26 °F75%30.29 "Hg
* Reported Feb 11 11:00 PM — Feb 26 11:00 PM, Red Deer, Weather by CustomWeather, © 2015

Note: Actual official high and low records may vary slightly from our data, if they occured in-between our weather recording intervals... More about our weather records

Advertising

Red Deer weather history for previous 24 hours

 ConditionsComfort  
Time TempWeatherWind HumidityBarometerVisibility
11:00 PM
Thu, Feb 26
9 °FPassing clouds.3 mph85%30.26 "Hg15 mi
10:00 PM7 °FPassing clouds.2 mph92%30.26 "Hg15 mi
9:00 PM10 °FPassing clouds.3 mph79%30.27 "Hg15 mi
8:00 PM12 °FPassing clouds.5 mph79%30.29 "Hg15 mi
7:00 PM12 °FPassing clouds.9 mph79%30.29 "Hg15 mi
6:00 PM14 °FPartly sunny.10 mph79%30.30 "Hg15 mi
5:00 PM16 °FPartly sunny.18 mph73%30.31 "Hg15 mi
4:00 PM18 °FPartly sunny.21 mph68%30.33 "Hg15 mi
3:00 PM16 °FPartly sunny.18 mph73%30.35 "Hg15 mi
2:00 PM16 °FPartly sunny.18 mph73%30.38 "Hg15 mi
1:00 PM14 °FSnow flurries. Scattered clouds.21 mph73%30.42 "Hg8 mi
12:00 PM12 °FSnow flurries. Low level haze.18 mph79%30.45 "Hg6 mi
11:00 AM9 °FSnow flurries. Low level haze.18 mph78%30.48 "Hg6 mi
10:00 AM7 °FSnow flurries. Sunny.21 mph78%30.49 "Hg6 mi
9:00 AM5 °FSnow flurries. Ice fog.17 mph78%30.52 "Hg2 mi
8:00 AM1 °FSnow flurries. Passing clouds.16 mph85%30.54 "Hg2 mi
7:45 AM1 °FSnow flurries. Passing clouds.14 mph85%30.54 "Hg2 mi
7:00 AM1 °FSnow flurries. Passing clouds.13 mph85%30.55 "Hg10 mi
6:00 AM1 °FClear.12 mph85%30.57 "Hg15 mi
5:00 AM1 °FClear.15 mph78%30.58 "Hg15 mi
4:00 AM0 °FClear.9 mph78%30.60 "Hg15 mi
3:00 AM0 °FClear.6 mph78%30.63 "Hg15 mi
2:00 AM1 °FClear.8 mph71%30.64 "Hg15 mi
1:00 AM1 °FPassing clouds.9 mph71%30.66 "Hg15 mi
12:00 AM1 °FClear.N/A71%30.67 "Hg15 mi
Weather by CustomWeather, © 2015

See weather overviewHow to use our weather pages